User: anonymous   Login
Location: Drayton Valley
(53.2170°N, 114.9830°W)
Time: 04:49:43
(UTC-06:00)
Language:

MOZ.5/SAFIR/RUBIN 5/SL-8 - Orbit

View from above orbital plane
View from above orbital plane
View from above satellite
View from above satellite

Ground track
Ground track

The orbit data is extracted from the following two-line orbital elements,

1 28898U 05043G   17204.57507682 -.00000033 +00000-0 +23890-5 0  9995
2 28898 097.9313 352.7417 0021146 075.0157 285.3383 14.60185471248516
Epoch (UTC): 23 July 2017 13:48:06
Eccentricity: 0.0021146
inclination: 97.9313°
perigee height: 677 km
apogee height: 707 km
right ascension of ascending node: 352.7417°
argument of perigee: 75.0157°
revolutions per day: 14.60185471
mean anomaly at epoch: 285.3383°
orbit number at epoch: 24851

The dashed part of the orbit path shows where the satellite is in the earth's shadow,  

DLR